HAZ2830 ZBAD-ZSHC

Flight info

Callsign HAZ2830
Flight time 1h 36m
Altitude 37100
Route ELKUR4K ELKUR W40 YQG/K0850S1100 W142 DALIM/K0843S1130 A593 DPX A470 IGRAT IGRAT91
Aircraft A320/M-SDE3FGHIRWY/LB1

Departure

Time 2026-04-15 13:42
Airport Beijing Daxing International Airport (ZBAD)

Arrival

Time 2026-04-15 15:19
Airport Hangzhou Xiaoshan International Airport (ZSHC)
Time Latitude Longitude Altitude Speed Heading
2026-04-15 12:52 39.50589 116.40610 90 ft 0 kts 342°
2026-04-15 13:25 39.50584 116.40612 88 ft 2 kts 342°
2026-04-15 13:25 39.50565 116.40620 88 ft 3 kts 342°
2026-04-15 13:25 39.50546 116.40628 88 ft 3 kts 342°
2026-04-15 13:25 39.50527 116.40636 88 ft 3 kts 342°
2026-04-15 13:26 39.50510 116.40643 89 ft 3 kts 326°
2026-04-15 13:26 39.50497 116.40660 87 ft 3 kts 291°
2026-04-15 13:26 39.50493 116.40683 85 ft 2 kts 264°
2026-04-15 13:26 39.50494 116.40693 86 ft 1 kts 262°
2026-04-15 13:27 39.50494 116.40694 86 ft 0 kts 262°
2026-04-15 13:31 39.50492 116.40673 88 ft 3 kts 262°
2026-04-15 13:31 39.50490 116.40651 87 ft 2 kts 262°
2026-04-15 13:32 39.50488 116.40636 86 ft 1 kts 262°
2026-04-15 13:32 39.50487 116.40621 87 ft 4 kts 262°
2026-04-15 13:32 39.50481 116.40563 87 ft 8 kts 263°
2026-04-15 13:32 39.50475 116.40497 86 ft 7 kts 268°
2026-04-15 13:33 39.50493 116.40451 88 ft 5 kts 318°
2026-04-15 13:33 39.50521 116.40423 87 ft 6 kts 323°
2026-04-15 13:33 39.50555 116.40390 87 ft 8 kts 323°
2026-04-15 13:33 39.50597 116.40349 87 ft 7 kts 322°
2026-04-15 13:34 39.50634 116.40313 86 ft 6 kts 322°
2026-04-15 13:34 39.50675 116.40272 85 ft 8 kts 322°
2026-04-15 13:34 39.50746 116.40227 86 ft 16 kts 350°
2026-04-15 13:34 39.50845 116.40195 86 ft 12 kts 302°
2026-04-15 13:35 39.50843 116.40090 86 ft 11 kts 262°
2026-04-15 13:35 39.50843 116.40005 89 ft 8 kts 297°
2026-04-15 13:35 39.50888 116.39982 88 ft 8 kts 348°
2026-04-15 13:35 39.50955 116.39970 88 ft 12 kts 353°
2026-04-15 13:36 39.51051 116.39956 87 ft 16 kts 351°
2026-04-15 13:36 39.51180 116.39936 89 ft 21 kts 353°
2026-04-15 13:36 39.51335 116.39913 88 ft 23 kts 353°
2026-04-15 13:36 39.51503 116.39888 89 ft 25 kts 354°
2026-04-15 13:37 39.51678 116.39857 88 ft 26 kts 353°
2026-04-15 13:37 39.51786 116.39832 88 ft 20 kts 327°
2026-04-15 13:37 39.51796 116.39769 90 ft 6 kts 259°
2026-04-15 13:37 39.51791 116.39725 94 ft 3 kts 262°
2026-04-15 13:38 39.51781 116.39627 97 ft 16 kts 263°
2026-04-15 13:38 39.51765 116.39453 90 ft 24 kts 263°
2026-04-15 13:38 39.51743 116.39223 85 ft 26 kts 263°
2026-04-15 13:38 39.51721 116.39001 86 ft 25 kts 263°
2026-04-15 13:39 39.51718 116.38961 87 ft 0 kts 263°
2026-04-15 13:41 39.51718 116.38959 87 ft 3 kts 263°
2026-04-15 13:41 39.51708 116.38854 91 ft 14 kts 262°
2026-04-15 13:41 39.51678 116.38765 96 ft 12 kts 224°
2026-04-15 13:41 39.51535 116.38767 95 ft 33 kts 172°
2026-04-15 13:42 39.51053 116.38844 99 ft 103 kts 173°
2026-04-15 13:42 39.50147 116.38994 105 ft 155 kts 172°
2026-04-15 13:42 39.49439 116.39108 472 ft 153 kts 174°
2026-04-15 13:42 39.48034 116.39314 1314 ft 152 kts 177°
2026-04-15 13:43 39.46973 116.39469 1903 ft 157 kts 177°
2026-04-15 13:43 39.45830 116.39631 2213 ft 178 kts 177°
2026-04-15 13:43 39.44956 116.39754 2397 ft 195 kts 177°
2026-04-15 13:43 39.43018 116.40033 2848 ft 229 kts 176°
2026-04-15 13:44 39.41361 116.40279 3399 ft 248 kts 176°
2026-04-15 13:44 39.39625 116.40550 4267 ft 254 kts 176°
2026-04-15 13:44 39.37857 116.40833 5186 ft 258 kts 175°
2026-04-15 13:44 39.36690 116.41171 5769 ft 264 kts 162°
2026-04-15 13:45 39.35165 116.42557 6646 ft 277 kts 133°
2026-04-15 13:45 39.34331 116.44841 7473 ft 291 kts 101°
2026-04-15 13:45 39.34514 116.48345 8614 ft 299 kts 83°
2026-04-15 13:47 39.34812 116.68633 12078 ft 385 kts 95°
2026-04-15 13:47 39.34607 116.72103 12765 ft 389 kts 95°
2026-04-15 13:47 39.34135 116.76712 13655 ft 394 kts 106°
2026-04-15 13:48 39.33529 116.78974 14061 ft 395 kts 115°
2026-04-15 13:48 39.32152 116.82044 14647 ft 397 kts 129°
2026-04-15 13:48 39.30293 116.84610 15229 ft 398 kts 142°
2026-04-15 13:48 39.28005 116.86605 15820 ft 398 kts 155°
2026-04-15 13:49 39.25458 116.87996 16419 ft 399 kts 161°
2026-04-15 13:49 39.22859 116.89308 17026 ft 403 kts 162°
2026-04-15 13:49 39.20236 116.90625 17622 ft 407 kts 162°
2026-04-15 13:49 39.17588 116.91950 18217 ft 410 kts 162°
2026-04-15 13:50 39.14043 116.93731 18893 ft 415 kts 162°
2026-04-15 13:50 39.12221 116.94647 19239 ft 417 kts 162°
2026-04-15 13:50 39.09513 116.96010 19747 ft 420 kts 162°
2026-04-15 13:50 39.06786 116.97386 20229 ft 422 kts 162°
2026-04-15 13:51 39.04083 116.98749 20714 ft 425 kts 162°
2026-04-15 13:51 39.01322 117.00138 21189 ft 427 kts 162°
2026-04-15 13:51 38.98544 117.01532 21650 ft 430 kts 162°
2026-04-15 13:51 38.95746 117.02933 22095 ft 432 kts 162°
2026-04-15 13:52 38.92936 117.04336 22529 ft 435 kts 162°
2026-04-15 13:52 38.90072 117.05568 22951 ft 432 kts 172°
2026-04-15 13:52 38.87108 117.05936 23372 ft 427 kts 186°
2026-04-15 13:52 38.84201 117.05332 23741 ft 422 kts 200°
2026-04-15 13:53 38.81572 117.03849 24076 ft 418 kts 214°
2026-04-15 13:53 38.79293 117.01568 24422 ft 415 kts 227°
2026-04-15 13:53 38.77519 116.98671 24767 ft 413 kts 240°
2026-04-15 13:53 38.76140 116.95436 25112 ft 414 kts 243°
2026-04-15 13:54 38.74778 116.92185 25444 ft 415 kts 243°
2026-04-15 13:54 38.73410 116.88919 25708 ft 417 kts 243°
2026-04-15 13:54 38.72035 116.85633 26016 ft 419 kts 243°
2026-04-15 13:54 38.70657 116.82342 26322 ft 420 kts 243°
2026-04-15 13:55 38.69291 116.79090 26620 ft 421 kts 243°
2026-04-15 13:55 38.67901 116.75791 26904 ft 422 kts 243°
2026-04-15 13:55 38.66324 116.72621 27175 ft 424 kts 233°
2026-04-15 13:55 38.64267 116.69895 27436 ft 429 kts 223°
2026-04-15 13:56 38.61783 116.67738 27668 ft 436 kts 212°
2026-04-15 13:56 38.58956 116.66263 27892 ft 444 kts 200°
2026-04-15 13:56 38.55891 116.65560 28157 ft 451 kts 190°
2026-04-15 13:56 38.52804 116.65212 28438 ft 451 kts 190°
2026-04-15 13:57 38.49679 116.64859 28738 ft 451 kts 191°
2026-04-15 13:57 38.46555 116.64503 29054 ft 450 kts 191°
2026-04-15 13:57 38.43440 116.64144 29374 ft 449 kts 191°
2026-04-15 13:57 38.40329 116.63782 29686 ft 449 kts 191°
2026-04-15 13:58 38.37204 116.63419 29803 ft 453 kts 191°
2026-04-15 13:58 38.34063 116.63060 30083 ft 453 kts 191°
2026-04-15 13:58 38.30916 116.62830 30357 ft 456 kts 185°
2026-04-15 13:58 38.27735 116.63187 30638 ft 463 kts 176°
2026-04-15 13:59 38.24632 116.64151 30914 ft 467 kts 169°
2026-04-15 13:59 38.21516 116.65320 31201 ft 466 kts 169°
2026-04-15 13:59 38.18411 116.66482 31484 ft 465 kts 169°
2026-04-15 13:59 38.15307 116.67640 31759 ft 464 kts 169°
2026-04-15 14:00 38.12217 116.68787 32061 ft 462 kts 169°
2026-04-15 14:00 38.09137 116.69932 32369 ft 461 kts 169°
2026-04-15 14:00 38.06067 116.71091 32662 ft 460 kts 169°
2026-04-15 14:00 38.03005 116.72260 32956 ft 459 kts 169°
2026-04-15 14:01 37.96957 116.74589 33546 ft 456 kts 169°
2026-04-15 14:01 37.93922 116.75749 33837 ft 455 kts 169°
2026-04-15 14:01 37.90892 116.76898 34113 ft 454 kts 170°
2026-04-15 14:02 37.87871 116.78041 34354 ft 453 kts 170°
2026-04-15 14:02 37.84849 116.79185 34593 ft 453 kts 170°
2026-04-15 14:02 37.81831 116.80328 34824 ft 453 kts 170°
2026-04-15 14:02 37.78816 116.81468 35052 ft 452 kts 171°
2026-04-15 14:03 37.75800 116.82609 35261 ft 452 kts 171°
2026-04-15 14:03 37.72830 116.83731 35468 ft 452 kts 171°
2026-04-15 14:03 37.69817 116.84869 35635 ft 452 kts 171°
2026-04-15 14:03 37.66803 116.86004 35808 ft 453 kts 171°
2026-04-15 14:04 37.63783 116.87138 35998 ft 453 kts 172°
2026-04-15 14:04 37.60766 116.88272 36166 ft 453 kts 172°
2026-04-15 14:04 37.57743 116.89408 36342 ft 453 kts 172°
2026-04-15 14:04 37.54722 116.90546 36524 ft 453 kts 172°
2026-04-15 14:05 37.51702 116.91685 36709 ft 453 kts 172°
2026-04-15 14:05 37.48685 116.92822 36883 ft 453 kts 172°
2026-04-15 14:05 37.45668 116.93956 37030 ft 452 kts 172°
2026-04-15 14:06 37.39646 116.96208 37092 ft 455 kts 172°
2026-04-15 14:06 37.33552 116.98477 37091 ft 460 kts 172°
2026-04-15 14:07 37.27390 117.00839 37089 ft 467 kts 170°
2026-04-15 14:07 37.21246 117.03675 37093 ft 472 kts 167°
2026-04-15 14:08 37.15175 117.06694 37091 ft 472 kts 167°
2026-04-15 14:08 37.09044 117.09639 37089 ft 472 kts 168°
2026-04-15 14:09 37.02888 117.12487 37100 ft 472 kts 168°
2026-04-15 14:09 36.96727 117.15315 37079 ft 472 kts 168°
2026-04-15 14:10 36.90613 117.18141 37092 ft 472 kts 168°
2026-04-15 14:10 36.84426 117.20770 37102 ft 460 kts 179°
2026-04-15 14:10 36.81301 117.21121 37107 ft 446 kts 188°
2026-04-15 14:11 36.78198 117.21166 37109 ft 446 kts 188°
2026-04-15 14:11 36.71988 117.21215 37092 ft 446 kts 189°
2026-04-15 14:12 36.65784 117.21231 37108 ft 446 kts 189°
2026-04-15 14:12 36.59620 117.21242 37114 ft 446 kts 189°
2026-04-15 14:13 36.53407 117.21271 37100 ft 448 kts 187°
2026-04-15 14:13 36.50274 117.21844 37111 ft 462 kts 176°
2026-04-15 14:13 36.47142 117.22757 37112 ft 462 kts 175°
2026-04-15 14:14 36.40880 117.24635 37130 ft 463 kts 175°
2026-04-15 14:14 36.34687 117.26501 37138 ft 463 kts 175°
2026-04-15 14:15 36.28395 117.28377 37110 ft 463 kts 175°
2026-04-15 14:15 36.22129 117.30236 37121 ft 463 kts 175°
2026-04-15 14:16 36.15858 117.32094 37132 ft 463 kts 175°
2026-04-15 14:16 36.09587 117.33957 37137 ft 464 kts 175°
2026-04-15 14:17 36.03357 117.35802 37114 ft 464 kts 175°
2026-04-15 14:17 35.97082 117.37735 37125 ft 467 kts 173°
2026-04-15 14:18 35.90839 117.40063 37134 ft 470 kts 171°
2026-04-15 14:18 35.84609 117.42534 37138 ft 470 kts 171°
2026-04-15 14:19 35.78412 117.44912 37124 ft 469 kts 172°
2026-04-15 14:19 35.72163 117.47224 37136 ft 469 kts 173°
2026-04-15 14:20 35.65915 117.49520 37142 ft 469 kts 172°
2026-04-15 14:20 35.59666 117.51839 37146 ft 469 kts 172°
2026-04-15 14:21 35.53461 117.54148 37147 ft 469 kts 172°
2026-04-15 14:21 35.47212 117.56465 37152 ft 469 kts 172°
2026-04-15 14:22 35.40961 117.58775 37152 ft 469 kts 172°
2026-04-15 14:22 35.34713 117.61081 37157 ft 469 kts 172°
2026-04-15 14:23 35.28503 117.63369 37135 ft 469 kts 172°
2026-04-15 14:23 35.22252 117.65665 37145 ft 469 kts 172°
2026-04-15 14:24 35.15995 117.67966 37148 ft 470 kts 172°
2026-04-15 14:24 35.09731 117.70265 37151 ft 470 kts 172°
2026-04-15 14:25 35.03464 117.72558 37139 ft 470 kts 172°
2026-04-15 14:25 34.97232 117.74840 37147 ft 471 kts 172°
2026-04-15 14:26 34.90959 117.77140 37147 ft 471 kts 172°
2026-04-15 14:26 34.84677 117.79431 37153 ft 471 kts 172°
2026-04-15 14:27 34.78397 117.81724 37134 ft 471 kts 173°
2026-04-15 14:27 34.72110 117.83994 37141 ft 471 kts 173°
2026-04-15 14:28 34.65864 117.86235 37145 ft 471 kts 173°
2026-04-15 14:28 34.59570 117.88489 37150 ft 471 kts 173°
2026-04-15 14:29 34.53279 117.90738 37139 ft 471 kts 173°
2026-04-15 14:29 34.46986 117.92999 37147 ft 472 kts 173°
2026-04-15 14:30 34.40692 117.95252 37152 ft 472 kts 173°
2026-04-15 14:30 34.34435 117.97475 37153 ft 471 kts 173°
2026-04-15 14:31 34.28144 117.99710 37138 ft 471 kts 173°
2026-04-15 14:31 34.21852 118.01977 37143 ft 472 kts 173°
2026-04-15 14:32 34.15569 118.04283 37145 ft 472 kts 173°
2026-04-15 14:32 34.09330 118.06570 37151 ft 472 kts 173°
2026-04-15 14:33 34.03044 118.08856 37135 ft 472 kts 173°
2026-04-15 14:33 33.96759 118.11132 37139 ft 472 kts 173°
2026-04-15 14:34 33.90486 118.13411 37149 ft 472 kts 173°
2026-04-15 14:34 33.84186 118.15700 37151 ft 472 kts 173°
2026-04-15 14:35 33.77946 118.17968 37125 ft 472 kts 173°
2026-04-15 14:35 33.71660 118.20259 37137 ft 472 kts 173°
2026-04-15 14:36 33.65376 118.22555 37142 ft 472 kts 173°
2026-04-15 14:36 33.59090 118.24841 37144 ft 472 kts 173°
2026-04-15 14:37 33.52846 118.27101 37125 ft 472 kts 173°
2026-04-15 14:37 33.46558 118.29375 37131 ft 472 kts 173°
2026-04-15 14:38 33.40269 118.31651 37136 ft 472 kts 173°
2026-04-15 14:38 33.33981 118.33923 37140 ft 472 kts 173°
2026-04-15 14:39 33.27731 118.36177 37115 ft 472 kts 173°
2026-04-15 14:39 33.21450 118.38434 37124 ft 471 kts 174°
2026-04-15 14:40 33.15169 118.40691 37131 ft 471 kts 174°
2026-04-15 14:40 33.08894 118.42947 37138 ft 471 kts 173°
2026-04-15 14:41 33.02660 118.45193 37131 ft 471 kts 173°
2026-04-15 14:41 32.96388 118.47450 37134 ft 471 kts 174°
2026-04-15 14:42 32.90115 118.49699 37138 ft 471 kts 174°
2026-04-15 14:42 32.83842 118.51934 37136 ft 470 kts 174°
2026-04-15 14:43 32.77571 118.54172 37104 ft 471 kts 174°
2026-04-15 14:43 32.71344 118.56400 37130 ft 471 kts 174°
2026-04-15 14:44 32.65078 118.58707 37135 ft 474 kts 172°
2026-04-15 14:44 32.58872 118.61472 37139 ft 479 kts 168°
2026-04-15 14:45 32.52699 118.64449 37130 ft 479 kts 168°
2026-04-15 14:45 32.46553 118.67339 37103 ft 477 kts 169°
2026-04-15 14:46 32.40354 118.70147 37123 ft 477 kts 170°
2026-04-15 14:46 32.34152 118.72923 37128 ft 477 kts 170°
2026-04-15 14:47 32.27948 118.75720 37131 ft 477 kts 170°
2026-04-15 14:47 32.21749 118.78525 37113 ft 477 kts 170°
2026-04-15 14:48 32.15588 118.81307 37124 ft 477 kts 170°
2026-04-15 14:48 32.09390 118.84107 37125 ft 477 kts 170°
2026-04-15 14:49 32.03188 118.86904 37125 ft 477 kts 170°
2026-04-15 14:49 31.96985 118.89691 37093 ft 477 kts 171°
2026-04-15 14:50 31.90819 118.92451 37126 ft 477 kts 171°
2026-04-15 14:50 31.84614 118.95231 37119 ft 477 kts 171°
2026-04-15 14:51 31.78407 118.98016 37114 ft 478 kts 171°
2026-04-15 14:51 31.72198 119.00805 37116 ft 478 kts 171°
2026-04-15 14:52 31.65984 119.03595 37105 ft 477 kts 172°
2026-04-15 14:52 31.59748 119.05689 37109 ft 471 kts 175°
2026-04-15 14:52 31.56646 119.07083 37111 ft 486 kts 166°
2026-04-15 14:53 31.53683 119.09115 37114 ft 503 kts 155°
2026-04-15 14:53 31.48054 119.14074 37119 ft 506 kts 154°
2026-04-15 14:53 31.45242 119.16559 37014 ft 507 kts 154°
2026-04-15 14:54 31.42435 119.19026 36407 ft 502 kts 154°
2026-04-15 14:54 31.39664 119.21447 35404 ft 505 kts 154°
2026-04-15 14:54 31.36837 119.23904 34422 ft 508 kts 153°
2026-04-15 14:54 31.34010 119.26361 33407 ft 501 kts 153°
2026-04-15 14:55 31.31248 119.28772 32344 ft 491 kts 152°
2026-04-15 14:55 31.28528 119.31146 31226 ft 485 kts 152°
2026-04-15 14:55 31.25848 119.33485 30214 ft 476 kts 151°
2026-04-15 14:55 31.23206 119.35784 28927 ft 471 kts 151°
2026-04-15 14:56 31.20583 119.38055 27739 ft 469 kts 150°
2026-04-15 14:56 31.17951 119.40327 26541 ft 472 kts 150°
2026-04-15 14:56 31.15307 119.42621 25341 ft 475 kts 149°
2026-04-15 14:56 31.12680 119.44912 24191 ft 480 kts 148°
2026-04-15 14:57 31.10014 119.47247 22950 ft 477 kts 148°
2026-04-15 14:57 31.07383 119.49560 21913 ft 470 kts 148°
2026-04-15 14:57 31.04785 119.51838 21073 ft 465 kts 148°
2026-04-15 14:57 31.02240 119.54066 20395 ft 446 kts 147°
2026-04-15 14:58 30.99824 119.56188 20023 ft 421 kts 148°
2026-04-15 14:58 30.97565 119.58169 19903 ft 393 kts 148°
2026-04-15 14:58 30.95448 119.60020 19698 ft 370 kts 148°
2026-04-15 14:58 30.93443 119.61763 19192 ft 361 kts 148°
2026-04-15 14:59 30.91442 119.63490 18592 ft 355 kts 148°
2026-04-15 14:59 30.89467 119.65190 17934 ft 351 kts 148°
2026-04-15 14:59 30.87519 119.66868 17256 ft 346 kts 148°
2026-04-15 14:59 30.85599 119.68527 16612 ft 342 kts 148°
2026-04-15 15:00 30.83703 119.70168 15989 ft 337 kts 148°
2026-04-15 15:00 30.81835 119.71784 15392 ft 333 kts 148°
2026-04-15 15:00 30.79992 119.73378 14873 ft 325 kts 148°
2026-04-15 15:00 30.78254 119.74889 14667 ft 309 kts 148°
2026-04-15 15:01 30.76553 119.76366 14245 ft 302 kts 148°
2026-04-15 15:01 30.74878 119.77814 13776 ft 298 kts 148°
2026-04-15 15:01 30.73224 119.79243 13238 ft 294 kts 147°
2026-04-15 15:01 30.71590 119.80653 12679 ft 291 kts 147°
2026-04-15 15:02 30.69936 119.82108 11665 ft 306 kts 146°
2026-04-15 15:02 30.68241 119.83639 10988 ft 307 kts 144°
2026-04-15 15:02 30.66574 119.85169 10904 ft 306 kts 144°
2026-04-15 15:02 30.64926 119.86686 10822 ft 307 kts 145°
2026-04-15 15:03 30.63160 119.88055 10696 ft 304 kts 154°
2026-04-15 15:03 30.61311 119.89234 10557 ft 303 kts 154°
2026-04-15 15:03 30.59469 119.90408 10431 ft 302 kts 154°
2026-04-15 15:03 30.57621 119.91580 10296 ft 303 kts 154°
2026-04-15 15:04 30.55778 119.92745 10163 ft 301 kts 154°
2026-04-15 15:04 30.53946 119.93905 10031 ft 300 kts 154°
2026-04-15 15:04 30.52111 119.95070 9653 ft 302 kts 154°
2026-04-15 15:04 30.50277 119.96235 9240 ft 300 kts 154°
2026-04-15 15:05 30.48481 119.97372 8863 ft 297 kts 154°
2026-04-15 15:05 30.46674 119.98515 8473 ft 294 kts 154°
2026-04-15 15:05 30.44886 119.99647 8096 ft 291 kts 154°
2026-04-15 15:05 30.43118 120.00767 7791 ft 287 kts 154°
2026-04-15 15:06 30.39656 120.02969 7672 ft 284 kts 154°
2026-04-15 15:06 30.37928 120.04066 7607 ft 283 kts 154°
2026-04-15 15:06 30.36201 120.05159 7548 ft 282 kts 154°
2026-04-15 15:07 30.34500 120.06232 7489 ft 282 kts 154°
2026-04-15 15:07 30.32780 120.07316 7417 ft 281 kts 154°
2026-04-15 15:07 30.31063 120.08397 7343 ft 280 kts 154°
2026-04-15 15:07 30.29352 120.09473 7266 ft 280 kts 154°
2026-04-15 15:08 30.27648 120.10548 7188 ft 279 kts 153°
2026-04-15 15:08 30.25945 120.11625 7101 ft 279 kts 153°
2026-04-15 15:08 30.24239 120.12699 7039 ft 279 kts 155°
2026-04-15 15:08 30.22410 120.13316 6967 ft 274 kts 179°
2026-04-15 15:09 30.20578 120.12952 6888 ft 271 kts 204°
2026-04-15 15:09 30.19039 120.11692 6355 ft 275 kts 231°
2026-04-15 15:09 30.18103 120.09823 6203 ft 263 kts 242°
2026-04-15 15:09 30.17276 120.07999 6069 ft 250 kts 236°
2026-04-15 15:10 30.16049 120.06718 5938 ft 234 kts 202°
2026-04-15 15:10 30.14478 120.06508 5548 ft 234 kts 167°
2026-04-15 15:10 30.12957 120.07273 4964 ft 243 kts 154°
2026-04-15 15:10 30.11431 120.08189 4373 ft 250 kts 153°
2026-04-15 15:11 30.09903 120.09192 3808 ft 255 kts 141°
2026-04-15 15:11 30.08929 120.10843 3246 ft 258 kts 104°
2026-04-15 15:11 30.09042 120.12850 2969 ft 249 kts 65°
2026-04-15 15:11 30.09941 120.14422 2963 ft 221 kts 58°
2026-04-15 15:12 30.10685 120.15897 2972 ft 205 kts 63°
2026-04-15 15:12 30.11320 120.17311 2975 ft 195 kts 64°
2026-04-15 15:12 30.11906 120.18628 3013 ft 174 kts 64°
2026-04-15 15:12 30.12435 120.19813 2967 ft 158 kts 64°
2026-04-15 15:13 30.12911 120.20879 2965 ft 147 kts 64°
2026-04-15 15:13 30.13370 120.21909 2960 ft 142 kts 65°
2026-04-15 15:13 30.13815 120.22907 2978 ft 140 kts 64°
2026-04-15 15:13 30.14257 120.23898 2991 ft 137 kts 65°
2026-04-15 15:14 30.14694 120.24878 2983 ft 137 kts 65°
2026-04-15 15:14 30.15131 120.25858 2957 ft 138 kts 64°
2026-04-15 15:14 30.15568 120.26839 2843 ft 137 kts 64°
2026-04-15 15:14 30.16004 120.27817 2694 ft 136 kts 65°
2026-04-15 15:15 30.16437 120.28790 2509 ft 136 kts 64°
2026-04-15 15:15 30.16862 120.29743 2338 ft 134 kts 65°
2026-04-15 15:15 30.17286 120.30695 2158 ft 133 kts 65°
2026-04-15 15:15 30.17709 120.31645 1988 ft 132 kts 65°
2026-04-15 15:16 30.18128 120.32586 1810 ft 131 kts 66°
2026-04-15 15:16 30.18544 120.33523 1637 ft 131 kts 65°
2026-04-15 15:16 30.18960 120.34457 1456 ft 131 kts 65°
2026-04-15 15:16 30.19375 120.35391 1277 ft 130 kts 65°
2026-04-15 15:17 30.19778 120.36305 1089 ft 129 kts 65°
2026-04-15 15:17 30.20186 120.37233 908 ft 130 kts 64°
2026-04-15 15:17 30.20601 120.38162 729 ft 130 kts 64°
2026-04-15 15:17 30.21011 120.39097 585 ft 131 kts 65°
2026-04-15 15:18 30.21433 120.40034 392 ft 131 kts 64°
2026-04-15 15:18 30.21847 120.40972 205 ft 130 kts 63°
2026-04-15 15:18 30.22266 120.41892 48 ft 130 kts 63°
2026-04-15 15:18 30.22621 120.42698 32 ft 90 kts 63°
2026-04-15 15:19 30.22826 120.43163 33 ft 41 kts 63°
2026-04-15 15:19 30.22923 120.43384 34 ft 29 kts 63°
2026-04-15 15:19 30.23021 120.43586 35 ft 29 kts 51°
2026-04-15 15:19 30.23179 120.43737 33 ft 30 kts 33°
2026-04-15 15:20 30.23315 120.43791 32 ft 18 kts 339°
2026-04-15 15:20 30.23392 120.43798 32 ft 6 kts 72°
2026-04-15 15:20 30.23432 120.43822 31 ft 10 kts 343°
2026-04-15 15:20 30.23508 120.43872 32 ft 18 kts 60°
2026-04-15 15:21 30.23585 120.43900 30 ft 13 kts 332°
2026-04-15 15:21 30.23671 120.43849 32 ft 15 kts 333°
2026-04-15 15:21 30.23761 120.43796 31 ft 15 kts 333°
2026-04-15 15:21 30.23872 120.43732 32 ft 21 kts 333°
2026-04-15 15:22 30.24010 120.43652 32 ft 23 kts 333°
2026-04-15 15:22 30.24163 120.43562 30 ft 26 kts 333°
2026-04-15 15:22 30.24331 120.43464 32 ft 28 kts 333°
2026-04-15 15:22 30.24481 120.43375 32 ft 14 kts 333°
2026-04-15 15:23 30.24534 120.43313 32 ft 10 kts 271°
2026-04-15 15:23 30.24506 120.43242 32 ft 10 kts 243°
2026-04-15 15:23 30.24455 120.43124 32 ft 21 kts 243°
2026-04-15 15:23 30.24390 120.42977 32 ft 15 kts 243°
2026-04-15 15:24 30.24343 120.42872 32 ft 14 kts 241°
2026-04-15 15:24 30.24308 120.42805 32 ft 6 kts 235°
2026-04-15 15:24 30.24272 120.42796 32 ft 5 kts 164°
2026-04-15 15:24 30.24237 120.42814 32 ft 7 kts 154°
2026-04-15 15:25 30.24159 120.42860 32 ft 16 kts 153°
2026-04-15 15:25 30.24087 120.42893 32 ft 5 kts 194°
2026-04-15 15:25 30.24068 120.42865 32 ft 0 kts 238°
2026-04-15 15:25 30.24062 120.42852 32 ft 3 kts 243°
2026-04-15 15:26 30.24059 120.42848 32 ft 0 kts 240°